Zurück zum Katalog

COSMOS 2251 DEB

AktivLEO
NORAD 36367·DEBRIS·🇷🇺 Russia

Gestartet Jun 16, 1993 von Plesetsk Cosmodrome

Loading…

Nächste Überflüge (nächste 24 Stunden)

TLE

AktuellSource: Space-Track

Epoche: Sep 13, 2026, 07:38 UTC

1 36367U 93036AYU 26256.31860992  .00001720  00000-0  11306-2 0  9998
2 36367  74.1011 127.8741 0261752 135.1491 227.1122 13.87201181613366

Verfolge COSMOS 2251 DEB in Echtzeit mit AllMySat

Download on the App Store